This is the latest recevied weather packets stored in our database for station/object SP9KB-14. If no packets are shown the sender has not sent any weather packets the latest 10 day(s).
| Time | Temp. | Humidity | Pressure | Rain* | Wind** | Luminosity | Snow |
|---|---|---|---|---|---|---|---|
| 1777965057 | 22.78° C | 43% | 1034.2 hPa | 0 mm | - | - | - |
| 1777964757 | 22.22° C | 44% | 1034.1 hPa | 0 mm | - | - | - |
| 1777964456 | 21.67° C | 43% | 1034 hPa | 0 mm | - | - | - |
| 1777964156 | 21.67° C | 44% | 1034.1 hPa | 0 mm | - | - | - |
| 1777963855 | 21.11° C | 43% | 1034.1 hPa | 0 mm | - | - | - |
| 1777963554 | 21.11° C | 44% | 1034.3 hPa | 0 mm | - | - | - |
| 1777963254 | 21.11° C | 45% | 1034.2 hPa | 0 mm | - | - | - |
| 1777962954 | 21.11° C | 47% | 1034.2 hPa | 0 mm | - | - | - |
| 1777962653 | 21.11° C | 48% | 1034.2 hPa | 0 mm | - | - | - |
| 1777962352 | 20.56° C | 49% | 1034.1 hPa | 0 mm | - | - | - |
| 1777962052 | 20.56° C | 49% | 1034.6 hPa | 0 mm | - | - | - |
| 1777961751 | 20° C | 50% | 1034.3 hPa | 0 mm | - | - | - |
| 1777961451 | 19.44° C | 51% | 1034.4 hPa | 0 mm | - | - | - |
| 1777961150 | 19.44° C | 52% | 1034.5 hPa | 0 mm | - | - | - |
| 1777960850 | 19.44° C | 52% | 1034.3 hPa | 0 mm | - | - | - |
| 1777960549 | 18.89° C | 53% | 1034.7 hPa | 0 mm | - | - | - |
| 1777960249 | 18.33° C | 54% | 1034.6 hPa | 0 mm | - | - | - |
| 1777959948 | 17.78° C | 55% | 1034.2 hPa | 0 mm | - | - | - |
| 1777959647 | 17.22° C | 57% | 1034.8 hPa | 0 mm | - | - | - |
| 1777959347 | 16.67° C | 58% | 1034.5 hPa | 0 mm | - | - | - |
| 1777959046 | 16.11° C | 59% | 1034.5 hPa | 0 mm | - | - | - |
| 1777958746 | 16.11° C | 58% | 1034.3 hPa | 0 mm | - | - | - |
| 1777958445 | 15.56° C | 59% | 1034.7 hPa | 0 mm | - | - | - |
| 1777958145 | 15.56° C | 60% | 1034.6 hPa | 0 mm | - | - | - |
| 1777957844 | 15.56° C | 59% | 1034.6 hPa | 0 mm | - | - | - |
* Rain latest hour (hover to see other rain measurements)
** Current wind speed in m/s (hover to see current wind gust speed)